Location: Barrio de Canyet
(41.4665°N, 2.2381°E)
Time: 20:40:58
(UTC+00:00)

ARGOS Delta rocket - Pass Details

Date: 09 April 2020
Orbit: 634 x 839 km, 96.4° (Epoch: 30 May)

Event Time Altitude Azimuth Distance (km) Brightness Sun altitude
Rises 18:43:10 0° 157° (SSE) 3,280 6.9 -4.1°
Reaches altitude 10° 18:45:29 10° 153° (SSE) 2,379 6.2 -4.5°
Maximum altitude 18:50:42 60° 75° (ENE) 944 4.3 -5.4°
Drops below altitude 10° 18:56:06 10° 357° (N) 2,460 6.9 -6.4°
Sets 18:58:31 0° 354° (N) 3,402 7.7 -6.8°
